Retour au catalogue

THOR ABLESTAR DEB

ActifLEO
NORAD 177·DEBRIS·🇺🇸 United States

Lancé Jun 29, 1961 depuis Cape Canaveral Space Force Station

Loading…

Prochains Passages (prochaines 24 heures)

TLE

FraisSource: Space-Track

Époque: Sep 9, 2026, 05:45 UTC

1 00177U 61015BB  26252.23968265  .00000269  00000-0  17279-3 0  9992
2 00177  66.6552 348.0852 0103551  29.3735 331.3120 14.14888828353052

Suivez THOR ABLESTAR DEB en temps réel avec AllMySat

Download on the App Store